| time (UTC) | temp F | wind direction | speed MPH | gust MPH | rain 1hr in | rain 24hr in | rain mn in | humidity % | barometer mb |
| 20260503024534 | 41 | 273 | 4.0 | 10.0 | 0.00 | 0.15 | 0.03 | 68 | 1014.7 |
| 20260503023034 | 41 | 229 | 2.0 | 7.0 | 0.00 | 0.15 | 0.03 | 68 | 1014.8 |
| 20260503021533 | 41 | 238 | 4.0 | 8.0 | 0.00 | 0.15 | 0.03 | 69 | 1014.8 |
| 20260503020032 | 41 | 259 | 2.0 | 8.0 | 0.00 | 0.15 | 0.03 | 68 | 1014.7 |
| 20260503014539 | 41 | 225 | 2.0 | 9.0 | 0.00 | 0.15 | 0.03 | 69 | 1014.6 |
| 20260503013029 | 41 | 167 | 4.0 | 11.0 | 0.00 | 0.15 | 0.03 | 73 | 1014.5 |
| 20260503011530 | 40 | 282 | 2.0 | 7.0 | 0.00 | 0.15 | 0.03 | 78 | 1014.5 |
| 20260503010028 | 40 | 294 | 1.0 | 5.0 | 0.00 | 0.15 | 0.03 | 79 | 1014.4 |
| 20260503004527 | 41 | 259 | 1.0 | 5.0 | 0.00 | 0.17 | 0.03 | 77 | 1014.1 |
| 20260503003027 | 41 | 287 | 1.0 | 4.0 | 0.00 | 0.17 | 0.03 | 73 | 1013.9 |
| 20260503001526 | 42 | 272 | 2.0 | 9.0 | 0.00 | 0.17 | 0.03 | 76 | 1014.0 |
| 20260503000025 | 42 | 259 | 2.0 | 4.0 | 0.00 | 0.17 | 0.03 | 76 | 1014.0 |
| 20260502234525 | 42 | 263 | 3.0 | 9.0 | 0.00 | 0.17 | 0.03 | 75 | 1013.8 |
| 20260502233024 | 43 | 256 | 2.0 | 8.0 | 0.00 | 0.17 | 0.03 | 74 | 1013.7 |
| 20260502231524 | 43 | 250 | 1.0 | 5.0 | 0.00 | 0.17 | 0.03 | 74 | 1013.6 |
| 20260502230024 | 43 | 327 | 2.0 | 9.0 | 0.00 | 0.17 | 0.03 | 71 | 1013.6 |
| 20260502224523 | 44 | 301 | 2.0 | 7.0 | 0.00 | 0.17 | 0.03 | 72 | 1013.5 |
| 20260502223024 | 44 | 254 | 1.0 | 4.0 | 0.00 | 0.17 | 0.03 | 72 | 1013.4 |
| 20260502221522 | 45 | 318 | 5.0 | 10.0 | 0.00 | 0.17 | 0.03 | 69 | 1013.4 |
| 20260502220042 | 45 | 239 | 4.0 | 10.0 | 0.00 | 0.17 | 0.03 | 70 | 1013.4 |
| 20260502214536 | 45 | 305 | 1.0 | 8.0 | 0.00 | 0.18 | 0.03 | 72 | 1013.3 |
| 20260502213048 | 45 | 360 | 2.0 | 7.0 | 0.00 | 0.18 | 0.03 | 76 | 1013.3 |
| 20260502211544 | 43 | 279 | 2.0 | 8.0 | 0.00 | 0.18 | 0.03 | 76 | 1013.2 |
| 20260502210035 | 44 | 321 | 3.0 | 8.0 | 0.00 | 0.18 | 0.03 | 75 | 1013.2 |
| 20260502204539 | 44 | 298 | 1.0 | 9.0 | 0.00 | 0.22 | 0.03 | 76 | 1013.2 |
| 20260502203034 | 44 | 286 | 2.0 | 5.0 | 0.00 | 0.22 | 0.03 | 74 | 1013.3 |
| 20260502201534 | 45 | 318 | 4.0 | 9.0 | 0.00 | 0.22 | 0.03 | 72 | 1013.3 |
| 20260502200032 | 45 | 340 | 2.0 | 8.0 | 0.00 | 0.22 | 0.03 | 73 | 1013.3 |
| 20260502194536 | 45 | 325 | 2.0 | 6.0 | 0.00 | 0.28 | 0.03 | 70 | 1013.4 |
| 20260502193032 | 46 | 323 | 4.0 | 9.0 | 0.00 | 0.28 | 0.03 | 68 | 1013.5 |
| 20260502191536 | 47 | 296 | 2.0 | 10.0 | 0.00 | 0.28 | 0.03 | 63 | 1013.6 |
| 20260502190030 | 48 | 30 | 1.0 | 5.0 | 0.00 | 0.28 | 0.03 | 60 | 1013.6 |
| 20260502184534 | 48 | 302 | 1.0 | 5.0 | 0.00 | 0.28 | 0.03 | 60 | 1013.7 |
| 20260502183029 | 48 | 355 | 1.0 | 5.0 | 0.00 | 0.28 | 0.03 | 61 | 1013.8 |
| 20260502181531 | 47 | 316 | 2.0 | 9.0 | 0.00 | 0.28 | 0.03 | 62 | 1013.9 |
| 20260502163033 | 47 | 32 | 5.0 | 13.0 | 0.00 | 0.28 | 0.03 | 61 | 1014.2 |
| 20260502161527 | 47 | 225 | 2.0 | 9.0 | 0.00 | 0.28 | 0.03 | 61 | 1014.2 |
| 20260502151521 | 48 | 288 | 3.0 | 7.0 | 0.00 | 0.28 | 0.03 | 61 | 1014.2 |
| 20260502123057 | 42 | 317 | 3.0 | 8.0 | 0.00 | 0.28 | 0.03 | 75 | 1014.8 |
| 20260502121555 | 41 | 335 | 1.0 | 5.0 | 0.00 | 0.28 | 0.03 | 79 | 1014.9 |
| 20260502120110 | 39 | 213 | 1.0 | 7.0 | 0.00 | 0.28 | 0.03 | 83 | 1014.9 |
| 20260502114556 | 38 | 261 | 3.0 | 6.0 | 0.00 | 0.28 | 0.03 | 85 | 1014.8 |
| 20260502113048 | 37 | 260 | 4.0 | 10.0 | 0.00 | 0.28 | 0.03 | 85 | 1014.7 |
| 20260502111550 | 37 | 295 | 2.0 | 8.0 | 0.00 | 0.28 | 0.03 | 88 | 1014.6 |
| 20260502110042 | 35 | 290 | 1.0 | 9.0 | 0.00 | 0.28 | 0.03 | 90 | 1014.5 |
| 20260502104547 | 34 | 275 | 2.0 | 9.0 | 0.00 | 0.28 | 0.03 | 92 | 1014.6 |
| 20260502103037 | 34 | 282 | 2.0 | 9.0 | 0.00 | 0.28 | 0.03 | 93 | 1014.8 |
| 20260502101533 | 33 | 292 | 2.0 | 7.0 | 0.00 | 0.28 | 0.03 | 93 | 1014.7 |
| 20260502091526 | 35 | 277 | 0.0 | 3.0 | 0.00 | 0.28 | 0.03 | 91 | 1013.9 |
| 20260502071510 | 37 | 309 | 3.0 | 8.0 | 0.00 | 0.28 | 0.03 | 91 | 1013.4 |
| 20260502070008 | 37 | 271 | 1.0 | 8.0 | 0.00 | 0.28 | 0.03 | 91 | 1013.3 |
| 20260502064509 | 38 | 321 | 1.0 | 9.0 | 0.00 | 0.28 | 0.03 | 90 | 1013.3 |
| 20260502063001 | 38 | 322 | 1.0 | 5.0 | 0.00 | 0.28 | 0.03 | 91 | 1013.3 |
| 20260502061600 | 39 | 317 | 3.0 | 9.0 | 0.01 | 0.28 | 0.03 | 89 | 1013.5 |
| 20260502060101 | 39 | 291 | 5.0 | 14.0 | 0.01 | 0.28 | 0.03 | 88 | 1013.4 |
| 20260502054554 | 40 | 323 | 2.0 | 13.0 | 0.02 | 0.28 | 0.03 | 90 | 1013.5 |
| 20260502053052 | 40 | 335 | 3.0 | 11.0 | 0.02 | 0.28 | 0.03 | 91 | 1013.4 |
| 20260502051619 | 41 | 291 | 2.0 | 8.0 | 0.01 | 0.27 | 0.02 | 91 | 1013.3 |
| 20260502050046 | 42 | 45 | 4.0 | 12.0 | 0.01 | 0.26 | 0.01 | 92 | 1013.3 |
| 20260502044543 | 42 | 252 | 3.0 | 13.0 | 0.06 | 0.26 | 0.01 | 94 | 1013.1 |
| 20260502043044 | 43 | 5 | 1.0 | 8.0 | 0.12 | 0.26 | 0.01 | 93 | 1012.9 |
| 20260502041539 | 43 | 348 | 2.0 | 4.0 | 0.12 | 0.26 | 0.01 | 94 | 1012.6 |
| 20260502040035 | 44 | 269 | 1.0 | 9.0 | 0.11 | 0.25 | 0.00 | 94 | 1012.6 |
| 20260502034544 | 44 | 271 | 4.0 | 10.0 | 0.06 | 0.20 | 0.20 | 94 | 1012.6 |
| 20260502033047 | 44 | 189 | 0.0 | 1.0 | 0.01 | 0.14 | 0.14 | 94 | 1012.3 |
| 20260502031538 | 44 | 163 | 0.0 | 2.0 | 0.01 | 0.14 | 0.14 | 94 | 1012.3 |
| 20260502030032 | 44 | 213 | 0.0 | 2.0 | 0.01 | 0.14 | 0.14 | 94 | 1012.5 |